Location: Kuppenheim
(48.8299°N, 8.2568°E)
Time: 07:24:52
(UTC+00:00)

N. Korean satellite - Pass Details

Date: 01 December 2022
Orbit: 407 x 442 km, 97.3° (Epoch: 04 February)

Event Time Altitude Azimuth Distance (km) Brightness Sun altitude
Rises 03:53:40 0° 27° (NNE) 2,527 10.5 -29.6°
Maximum altitude 03:58:42 18° 92° (E) 1,237 9.4 -28.8°
Drops below altitude 10° 04:01:07 10° 136° (SE) 1,618 9.7 -28.4°
Sets 04:03:39 0° 156° (SSE) 2,478 10.5 -28.0°
